Location: Bothwell
(42.3833°S, 147.0000°E)
Time: 20:17:02
(UTC+11:00)

First-Move - Pass Details

Date: 01 October 2022
Orbit: 570 x 653 km, 97.7° (Epoch: 25 November)

Event Time Altitude Azimuth Distance (km) Brightness Sun altitude
Rises 18:22:26 0° 205° (SSW) 2,969 ? -1.8°
Enters shadow 19:17:48 -71° 83° (E) 12,701 ? -11.9°
Exits shadow 19:40:43 -33° 139° (SE) 8,035 ? -15.9°
Maximum altitude 02:08:45 18° 116° (ESE) 1,602 ? -36.3°
